Other Public Products
Issued by NWS Grand Forks, ND

Home | Current Version | Previous Version | Text Only | Print | Product List | Glossary Off
Versions: 1 2 3 4 5 6 7 8 9 10 11 12 13 14 15 16 17 18 19 20 21 22 23 24 25 26 27 28 29 30 31 32 33 34 35 36 37 38 39 40 41 42 43 44 45 46 47 48 49 50

000
FPUS83 KFGF 240831
OPUFGF
PRAIRIE TO PINES WEATHER ROUNDUP
NATIONAL WEATHER SERVICE EASTERN NORTH DAKOTA/GRAND FORKS ND
300 AM CDT THU APR 24 2014

 **SATELLITE DATA USED TO AUGMENT SKY COVER AT AUTOMATED STATIONS**
 *****  WEATHER ACROSS EASTERN NORTH DAKOTA  *****

CITY           SKY/WX    TMP DP  RH WIND       PRES   REMARKS
GRAND FORKS    CLOUDY    38  37  97 SE13      29.79F FOG
GRAND FORKS AF CLOUDY    38  38  99 SE9       29.79F
GRAND CITY NWS   N/A     37 N/A N/A SE9         N/A
BUXTON         NOT AVBL
DEVILS LAKE    CLOUDY    37  34  87 SE9       29.72F
FARGO          CLOUDY    42  38  85 SE8       29.78S
WAHPETON ARPT  CLOUDY    41  36  81 SE9       29.78F
$$

 *****  WEATHER ACROSS CENTRAL AND WESTERN NORTH DAKOTA  *****

CITY           SKY/WX    TMP DP  RH WIND       PRES   REMARKS
JAMESTOWN      CLOUDY    35  35 100 S3        29.73S FOG
BISMARCK       MOCLDY    39  32  76 CALM      29.74R
MINOT          PTCLDY    41  38  89 S7        29.66F
MINOT AFB      MOCLDY    36  36 100 S7        29.66S
GARRISON         N/A     36  35  96 S7        29.69F
WILLISTON      CLEAR     43  26  51 W16       29.66R
DICKINSON      CLEAR     37  23  56 W12       29.71R
HETTINGER      PTCLDY    31  24  75 NW5       29.78R
$$

 *****  OTHER OBSERVATIONS NORTHEAST NORTH DAKOTA  *****

CITY           SKY/WX    TMP DP  RH WIND       PRES   REMARKS
WALHALLA       CLOUDY    37  37 100 SE13G18   29.78F
LANGDON        CLOUDY    36  36 100 SE16      29.73F
CAVALIER       CLOUDY    37  36  93 SE13G20   29.79F
GRAFTON        CLOUDY    36  36 100 SE13G20   29.79F
CANDO          CLOUDY    37  37 100 S13       29.72S
FORT TOTTEN    NOT AVBL
ROLLA          FOG       37  37 100 S14       29.69F VSB 1/2
RUGBY          CLOUDY    39  39 100 S10G16    29.69S FOG
 ***** THE ABOVE OBSERVATIONS ARE NON NWS ARE NOT QUALITY
        CONTROLLED AND MAY MIS-REPORT RAIN FOR SNOW...
$$

 *****  OTHER OBSERVATIONS SOUTHEAST NORTH DAKOTA *****

CITY           SKY/WX    TMP DP  RH WIND       PRES   REMARKS
COOPERSTOWN    CLOUDY    37  37 100 S12       29.74S
VALLEY CITY    CLOUDY    39  39 100 SE7       29.75R
OAKES          CLOUDY    39  39 100 E8        29.73F FOG
GWINNER        CLOUDY    39  39 100 SE6       29.76F
SHEYENNE NWR     N/A     40  40  99 SE8       29.95S
BUFFALO        NOT AVBL
WYNDMERE       NOT AVBL
 ***** THE ABOVE OBSERVATIONS ARE NON NWS ARE NOT QUALITY
       CONTROLLED AND MAY MIS-REPORT RAIN FOR SNOW...
$$

  *****  WEATHER ACROSS NORTHERN MINNESOTA  *****

CITY           SKY/WX    TMP DP  RH WIND       PRES   REMARKS
FLAG ISLAND    LGT RAIN  36  34  93 SE8       29.91F
WARROAD        CLOUDY    37  34  87 E10       29.89F
ROSEAU         CLOUDY    39  34  81 SE10      29.87F
HALLOCK        CLOUDY    39  36  87 SE17G25   29.81F
THF RVR FALLS  CLOUDY    37  32  81 E14       29.84F
HALSTAD          N/A     40  39  97 SE10        N/A
FOSSTON        DRIZZLE   36  34  93 E10G16    29.83F
BAUDETTE       CLOUDY    37  35  92 SE8       29.92F
WASKISH        CLOUDY    36  36 100 E15       29.90F
CROOKSTON      CLOUDY    37  37 100 SE13      29.81F
$$
  *****  WEATHER ACROSS CENTRAL AND WEST MINNESOTA  *****

CITY           SKY/WX    TMP DP  RH WIND       PRES   REMARKS
BEMIDJI        CLOUDY    34  33  97 E8        29.86F
PARK RAPIDS    CLOUDY    38  36  92 SE9       29.83F
WADENA         CLOUDY    37  36  93 E10       29.81F
DETROIT LAKES  DRIZZLE   37  37 100 SE12G18   29.81S
MOORHEAD       CLOUDY    43  43 100 S9        29.80S
FERGUS FALLS   CLOUDY    41  36  81 SE14      29.77R
ELBOW LAKE     CLOUDY    41  37  86 SE12      29.78R
MORRIS MN      CLOUDY    43  37  81 SE14      29.76F
STAPLES        CLOUDY    39  36  87 SE6       29.84S
WHEATON        CLOUDY    43  39  87 SE10      29.79F
$$
  *****  WEATHER ELSEWHERE ACROSS MINNESOTA  *****

CITY           SKY/WX    TMP DP  RH WIND       PRES   REMARKS
DULUTH         DRIZZLE   36  34  92 E10       29.98F FOG
INTRNTL FALLS  LGT RAIN  37  34  89 SE8       29.97F
ELY            DRIZZLE   36  34  93 SE3       30.01S
CLOQUET        DRIZZLE   36  34  93 E12       29.95F
BRAINERD       CLOUDY    43  36  76 SE9       29.87F
HIBBING        LGT RAIN  35  32  88 E9        29.97F
ALEXANDRIA     CLOUDY    40  36  86 SE18      29.80F
SAINT CLOUD    CLOUDY    43  37  79 E8        29.85F
MINNEAPOLIS    CLOUDY    43  38  82 SE16      29.86F
$$

  *****  WEATHER ACROSS SOUTH DAKOTA  *****

CITY           SKY/WX    TMP DP  RH WIND       PRES   REMARKS
SIOUX FALLS    LGT RAIN  47  44  90 E9        29.65F
BROOKINGS      NOT AVBL
WATERTOWN      CLOUDY    42  37  82 E8        29.71F
HURON          LGT RAIN  46  41  82 E5        29.69S
SISSETON         N/A     41  39  93 SE9       29.75S
ABERDEEN       CLOUDY    39  38  96 E5        29.73S
MITCHELL       LGT RAIN  48  42  80 NE7       29.67F
PIERRE         CLOUDY    44  37  76 W10       29.76S
MOBRIDGE       PTCLDY    33  32  96 CALM      29.74R
RAPID CITY     MOCLDY    37  24  59 NW10      29.83F
$$

  *****  SOME WEATHER IN NEARBY STATES *****

CITY           SKY/WX    TMP DP  RH WIND       PRES   REMARKS
GLASGOW MT     PTCLDY    40  28  62 W13       29.69S
GREAT FALLS MT PTCLDY    36  30  79 SW18G24   29.77R
CHEYENNE WY    PTCLDY    36   9  32 NW17G28   29.96S
SCOTTSBLUFF NE CLOUDY    43  34  70 W9        29.90R
OMAHA NE       CLOUDY    48  44  86 N5        29.61F
DES MOINES IA  TSTM      51  40  65 SE14      29.71F
DAVENPORT IA   CLOUDY    45  36  70 E16       29.94F
CHICAGO IL     CLOUDY    40  30  67 N7        30.08R
EAU CLAIRE WI  CLOUDY    40  37  89 SE16G25   29.95F
LA CROSSE WI   LGT RAIN  42  36  79 SE9       29.96F
$$

  *****  SOME NATIONAL WEATHER *****

CITY           SKY/WX    TMP DP  RH WIND       PRES   REMARKS
LA GUARDIA NY  CLEAR     44  26  49 NW14      29.84R
RALEIGH NC     CLEAR     49  31  49 CALM      30.04R
ATLANTA GA     CLEAR     51  39  63 NW3       29.96R
NEW ORLEANS LA CLEAR     67  64  90 SW5       29.91F
OKLAHOMA CITY  MOCLDY    68  60  75 S20G29    29.66R
ALBUQUERQUE NM CLEAR     52  10  18 NW14      30.00R
SALT LAKE CITY PTCLDY    40  23  50 SE8       30.06F
LOS ANGELES CA CLEAR     61  50  67 CALM      29.95S
BOISE ID       CLOUDY    48  33  56 SE6       29.94F
SEATTLE WA     LGT RAIN  50  47  89 SE16      29.63F
$$

*** WEATHER ACROSS MANITOBA...SASKATCHEWAN AND ONTARIO ***
                ***ONTARIO***

CITY           SKY/WX    TMP DP  RH WIND       PRES   REMARKS
GERALDTON      CLEAR     27  19  74 E3        30.11S
THUNDER BAY    CLOUDY    34  27  75 E8        30.08F
SIOUX LOOKOUT  CLOUDY    39  19  45 SE5       29.99F
TORONTO        CLEAR     32  19  59 W7        30.10R
BIG TROUT LK   MOCLDY    28  21  74 NE9       30.14S WCI  20
PICKLE LAKE    NOT AVBL
DRYDEN         CLOUDY    39  23  52 S8        29.98S
KENORA         CLOUDY    39  32  75 S8        29.94F
$$
                *** MANITOBA***

CITY           SKY/WX    TMP DP  RH WIND       PRES   REMARKS
BRANDON        LGT RAIN  37  36  93 SE17G23   29.72F FOG
DAUPHIN        LGT RAIN  39  37  93 SE18G24   29.75F
ISLAND LAKE    CLEAR     28  23  80 NE5G20    30.10F WCI  23
PILOT MOUND      N/A     36  34  93 SE17        N/A
THE PAS        PTCLDY    34  27  75 E13G23    29.91R WCI  25
THOMPSON       CLOUDY    23  19  86 E14G24    30.21S WCI  11
WINNIPEG       LGT RAIN  39  37  93 SE20      29.86F
LYNN LAKE      CLOUDY    21  18  86 E18       30.16S WCI   6
CHURCHILL      FLURRIES  18  14  86 E6        30.44S WCI   9
GILLAM         CLOUDY    18  16  93 NE14G20   30.32S WCI   4
$$
                ***SASKATCHEWAN***

CITY           SKY/WX    TMP DP  RH WIND       PRES   REMARKS
ESTEVAN        CLOUDY    39  39 100 S5        29.63R
KINDERSLEY     CLOUDY    39  32  75 W17G24    29.56R
LLOYDMINSTER   LGT RAIN  36  36 100 E14G23    29.51S FOG
PRINCE ALBERT  LGT RAIN  36  36 100 E17G25    29.64F
REGINA         LGT RAIN  43  41  93 SW8       29.58R



USA.gov is the U.S. government's official web portal to all federal, state and local government web resources and services.